Flag Weather past 2 weeks in Leinfelden-Echterdingen, Baden-Württemberg, Germany

Now
46 °F

Passing clouds.


Feels Like: 43 °F
Forecast: 39 / 46 °F
Wind: 7 mph from Northeast

Location: Stuttgart-Echterdingen

Current Time: Nov 25, 2014 at 3:14:57 AM

Latest Report: Nov 25, 2014 at 2:50 AM


Visibility: N/A

Pressure: 30.24 "Hg

Humidity: 87%

Dew point: 43 °F

Location of Leinfelden-EchterdingenLocation

Historic Weather in Leinfelden-Echterdingen — Graph

°F

Leinfelden-Echterdingen temperature yesterday

Maximum temperature yesterday: 55 °F (at 12:20 PM)
Minimum temperature yesterday: 41 °F (at 3:20 AM)
Average temperature yesterday: 46 °F

Past Weeks' High & Low Weather Summary

 TemperatureHumidityPressure
High57 °F (Nov 22, 2:20 PM)100% (Nov 10, 2:50 AM)30.30 "Hg (Nov 10, 2:50 AM)
Low34 °F (Nov 20, 2:50 AM)63% (Nov 16, 3:20 PM)29.53 "Hg (Nov 15, 10:20 PM)
Average44 °F92%29.91 "Hg
* Reported Nov 10 2:20 AM — Nov 25 2:20 AM, Leinfelden-Echterdingen, Weather by CustomWeather, © 2014

Note: Actual official high and low records may vary slightly from our data, if they occured in-between our weather recording intervals... More about our weather records

Advertising

Leinfelden-Echterdingen weather history for previous 24 hours

 ConditionsComfort  
Time TempWeatherWind HumidityBarometerVisibility
2:20 AM
Nov 25
46 °FPassing clouds.5 mph87%30.24 "HgN/A
1:50 AM46 °FPassing clouds.5 mph87%30.24 "HgN/A
1:20 AM46 °FPassing clouds.6 mph87%30.24 "HgN/A
12:50 AM46 °FPassing clouds.6 mph87%30.24 "HgN/A
12:20 AM46 °FPassing clouds.7 mph87%30.27 "HgN/A
11:50 PM
Nov 24
46 °FLow clouds.3 mph87%30.27 "HgN/A
11:20 PM46 °FLow clouds.5 mph87%30.27 "HgN/A
10:50 PM46 °FLow clouds.5 mph87%30.27 "HgN/A
10:20 PM46 °FLow clouds.6 mph93%30.27 "HgN/A
9:50 PM46 °FLow clouds.5 mph93%30.27 "HgN/A
9:20 PM46 °FLow clouds.3 mph93%30.27 "HgN/A
8:20 PM46 °FLow clouds.5 mph93%30.27 "HgN/A
7:50 PM46 °FLow clouds.7 mph93%30.24 "HgN/A
7:20 PM46 °FLow clouds.6 mph93%30.24 "HgN/A
6:50 PM46 °FLow clouds.1 mph93%30.24 "HgN/A
6:20 PM46 °FPassing clouds.1 mph93%30.24 "HgN/A
5:50 PM46 °FDrizzle. Mostly cloudy.1 mph93%30.24 "HgN/A
5:20 PM46 °FPassing clouds.5 mph93%30.24 "HgN/A
4:50 PM46 °FPassing clouds.7 mph87%30.24 "HgN/A
4:20 PM46 °FPartly sunny.8 mph87%30.24 "HgN/A
3:50 PM48 °FPartly sunny.10 mph87%30.24 "HgN/A
3:20 PM50 °FPartly sunny.5 mph82%30.21 "HgN/A
2:50 PM50 °FPartly sunny.5 mph82%30.21 "HgN/A
2:20 PM50 °FPartly sunny.8 mph82%30.21 "HgN/A
1:50 PM52 °FBroken clouds.12 mph82%30.21 "HgN/A
1:20 PM54 °FBroken clouds.12 mph77%30.21 "HgN/A
12:50 PM55 °FBroken clouds.2 mph72%30.21 "HgN/A
12:20 PM55 °FSunny.2 mph72%30.21 "Hg10 mi
11:50 AM54 °FSunny.3 mph77%30.21 "Hg10 mi
11:20 AM52 °FSunny.3 mph82%30.21 "Hg10 mi
10:50 AM50 °FSunny.2 mph82%30.21 "Hg10 mi
10:20 AM50 °FSunny.2 mph82%30.21 "Hg10 mi
9:50 AM48 °FSunny.1 mph87%30.21 "Hg10 mi
9:20 AM45 °FSunny.2 mph93%30.18 "Hg10 mi
8:50 AM43 °FSunny.2 mph93%30.15 "Hg10 mi
8:20 AM43 °FSunny.1 mph93%30.15 "Hg10 mi
7:50 AM43 °FSunny.2 mph93%30.15 "Hg10 mi
7:20 AM43 °FClear.2 mph93%30.12 "Hg10 mi
6:50 AM45 °FClear.2 mph87%30.12 "Hg10 mi
6:20 AM43 °FClear.1 mph93%30.12 "Hg10 mi
5:50 AM43 °FClear.1 mph93%30.12 "Hg10 mi
5:20 AM43 °FClear.1 mph93%30.09 "Hg10 mi
4:50 AM41 °FClear.1 mph93%30.09 "Hg10 mi
4:20 AM41 °FClear.2 mph93%30.09 "Hg10 mi
3:50 AM41 °FClear.1 mph93%30.09 "Hg10 mi
3:20 AM41 °FClear.1 mph93%30.09 "Hg10 mi
Weather by CustomWeather, © 2014

See weather overviewHow to use our weather pages